| time (UTC) | temp F | wind direction | speed knots | gust knots | rain 1hr in | rain 24hr in | rain mn in | humidity % | barometer mb |
| 20260505125004 | 60 | 178 | 4.3 | 10.4 | 0.00 | 0.00 | 0.00 | 66 | 1010.1 |
| 20260505124512 | 59 | 181 | 4.3 | 10.4 | 0.00 | 0.00 | 0.00 | 66 | 1010.0 |
| 20260505124007 | 59 | 176 | 3.5 | 10.4 | 0.00 | 0.00 | 0.00 | 66 | 1010.0 |
| 20260505123504 | 59 | 188 | 4.3 | 10.4 | 0.00 | 0.00 | 0.00 | 65 | 1010.0 |
| 20260505123013 | 58 | 192 | 5.2 | 11.3 | 0.00 | 0.00 | 0.00 | 66 | 1010.1 |
| 20260505122503 | 58 | 150 | 6.1 | 12.2 | 0.00 | 0.00 | 0.00 | 66 | 1010.3 |
| 20260505122003 | 58 | 221 | 7.8 | 12.2 | 0.00 | 0.00 | 0.00 | 66 | 1010.4 |
| 20260505121531 | 58 | 194 | 4.3 | 11.3 | 0.00 | 0.00 | 0.00 | 66 | 1010.3 |
| 20260505121007 | 57 | 190 | 7.0 | 10.4 | 0.00 | 0.00 | 0.00 | 66 | 1010.2 |
| 20260505120512 | 57 | 180 | 6.1 | 9.6 | 0.00 | 0.00 | 0.00 | 67 | 1010.2 |
| 20260505120020 | 57 | 204 | 6.1 | 9.6 | 0.00 | 0.00 | 0.00 | 67 | 1010.3 |
| 20260505115502 | 57 | 176 | 5.2 | 8.7 | 0.00 | 0.00 | 0.00 | 67 | 1010.4 |
| 20260505115003 | 57 | 211 | 5.2 | 10.4 | 0.00 | 0.00 | 0.00 | 67 | 1010.5 |
| 20260505114503 | 57 | 188 | 5.2 | 9.6 | 0.00 | 0.00 | 0.00 | 67 | 1010.5 |
| 20260505114011 | 56 | 234 | 5.2 | 11.3 | 0.00 | 0.00 | 0.00 | 67 | 1010.3 |
| 20260505113504 | 56 | 185 | 6.1 | 11.3 | 0.00 | 0.00 | 0.00 | 67 | 1010.3 |
| 20260505113012 | 56 | 178 | 5.2 | 12.2 | 0.00 | 0.00 | 0.00 | 68 | 1010.4 |
| 20260505112505 | 56 | 189 | 7.0 | 12.2 | 0.00 | 0.00 | 0.00 | 68 | 1010.4 |
| 20260505112003 | 55 | 217 | 6.1 | 10.4 | 0.00 | 0.00 | 0.00 | 69 | 1010.4 |
| 20260505111513 | 55 | 167 | 5.2 | 12.2 | 0.00 | 0.00 | 0.00 | 69 | 1010.5 |
| 20260505111008 | 55 | 232 | 7.8 | 12.2 | 0.00 | 0.00 | 0.00 | 69 | 1010.4 |
| 20260505110510 | 55 | 203 | 7.0 | 10.4 | 0.00 | 0.00 | 0.00 | 69 | 1010.3 |
| 20260505102004 | 54 | 181 | 5.2 | 9.6 | 0.00 | 0.00 | 0.00 | 69 | 1009.8 |
| 20260505101516 | 53 | 198 | 6.1 | 9.6 | 0.00 | 0.00 | 0.00 | 69 | 1009.7 |
| 20260505101009 | 53 | 223 | 5.2 | 8.7 | 0.00 | 0.00 | 0.00 | 69 | 1009.7 |
| 20260505100503 | 53 | 217 | 4.3 | 7.0 | 0.00 | 0.00 | 0.00 | 69 | 1009.6 |
| 20260505100018 | 53 | 213 | 3.5 | 7.0 | 0.00 | 0.00 | 0.00 | 69 | 1009.5 |
| 20260505095508 | 53 | 182 | 3.5 | 8.7 | 0.00 | 0.00 | 0.00 | 69 | 1009.5 |
| 20260505095006 | 53 | 194 | 4.3 | 8.7 | 0.00 | 0.00 | 0.00 | 69 | 1009.5 |
| 20260505094522 | 53 | 209 | 5.2 | 8.7 | 0.00 | 0.00 | 0.00 | 69 | 1009.4 |
| 20260505094010 | 53 | 198 | 5.2 | 9.6 | 0.00 | 0.00 | 0.00 | 69 | 1009.3 |
| 20260505093508 | 53 | 201 | 6.1 | 9.6 | 0.00 | 0.00 | 0.00 | 69 | 1009.4 |
| 20260505093026 | 53 | 173 | 3.5 | 8.7 | 0.00 | 0.00 | 0.00 | 69 | 1009.5 |
| 20260505092503 | 53 | 190 | 2.6 | 7.0 | 0.00 | 0.00 | 0.00 | 69 | 1009.5 |
| 20260505092003 | 53 | 192 | 3.5 | 7.0 | 0.00 | 0.00 | 0.00 | 69 | 1009.5 |
| 20260505091513 | 53 | 195 | 3.5 | 7.0 | 0.00 | 0.00 | 0.00 | 69 | 1009.4 |
| 20260505091004 | 53 | 172 | 4.3 | 6.1 | 0.00 | 0.00 | 0.00 | 69 | 1009.5 |
| 20260505090503 | 54 | 180 | 3.5 | 6.1 | 0.00 | 0.00 | 0.00 | 68 | 1009.4 |
| 20260505090034 | 54 | 184 | 3.5 | 7.0 | 0.00 | 0.00 | 0.00 | 68 | 1009.4 |
| 20260505085504 | 54 | 187 | 3.5 | 7.0 | 0.00 | 0.00 | 0.00 | 68 | 1009.4 |
| 20260505085008 | 54 | 209 | 3.5 | 7.0 | 0.00 | 0.00 | 0.00 | 68 | 1009.6 |
| 20260505084522 | 54 | 148 | 4.3 | 7.8 | 0.00 | 0.00 | 0.00 | 67 | 1009.6 |
| 20260505084010 | 54 | 207 | 4.3 | 7.8 | 0.00 | 0.00 | 0.00 | 67 | 1009.6 |
| 20260505083513 | 54 | 204 | 3.5 | 7.0 | 0.00 | 0.00 | 0.00 | 67 | 1009.7 |
| 20260505083024 | 54 | 193 | 3.5 | 8.7 | 0.00 | 0.00 | 0.00 | 67 | 1009.7 |
| 20260505082512 | 54 | 186 | 5.2 | 8.7 | 0.00 | 0.00 | 0.00 | 67 | 1009.7 |
| 20260505082008 | 54 | 210 | 4.3 | 6.1 | 0.00 | 0.00 | 0.00 | 66 | 1009.6 |
| 20260505081507 | 54 | 187 | 4.3 | 7.8 | 0.00 | 0.00 | 0.00 | 66 | 1009.7 |
| 20260505081003 | 54 | 202 | 3.5 | 9.6 | 0.00 | 0.00 | 0.00 | 66 | 1009.7 |
| 20260505080502 | 54 | 194 | 5.2 | 9.6 | 0.00 | 0.00 | 0.00 | 65 | 1009.7 |
| 20260505080035 | 54 | 211 | 5.2 | 9.6 | 0.00 | 0.00 | 0.00 | 65 | 1009.8 |
| 20260505075503 | 54 | 190 | 3.5 | 7.8 | 0.00 | 0.00 | 0.00 | 65 | 1009.8 |
| 20260505075007 | 54 | 222 | 3.5 | 7.8 | 0.00 | 0.00 | 0.00 | 64 | 1009.8 |
| 20260505074525 | 54 | 196 | 3.5 | 7.8 | 0.00 | 0.00 | 0.00 | 64 | 1009.8 |
| 20260505074008 | 54 | 198 | 4.3 | 7.0 | 0.00 | 0.00 | 0.00 | 64 | 1009.7 |
| 20260505073505 | 55 | 203 | 4.3 | 9.6 | 0.00 | 0.00 | 0.00 | 63 | 1009.7 |
| 20260505073031 | 55 | 190 | 5.2 | 9.6 | 0.00 | 0.00 | 0.00 | 63 | 1009.7 |
| 20260505072506 | 55 | 217 | 5.2 | 9.6 | 0.00 | 0.00 | 0.00 | 63 | 1009.6 |
| 20260505072005 | 55 | 193 | 5.2 | 11.3 | 0.00 | 0.00 | 0.00 | 62 | 1009.6 |
| 20260505071533 | 55 | 195 | 4.3 | 11.3 | 0.00 | 0.00 | 0.00 | 61 | 1009.7 |
| 20260505071009 | 55 | 213 | 2.6 | 7.0 | 0.00 | 0.00 | 0.00 | 61 | 1009.7 |
| 20260505070509 | 55 | 200 | 3.5 | 8.7 | 0.00 | 0.00 | 0.00 | 61 | 1009.8 |
| 20260505070014 | 55 | 213 | 5.2 | 11.3 | 0.00 | 0.00 | 0.00 | 61 | 1009.7 |
| 20260505065503 | 55 | 212 | 4.3 | 11.3 | 0.00 | 0.00 | 0.00 | 61 | 1009.7 |
| 20260505065006 | 55 | 187 | 7.0 | 10.4 | 0.00 | 0.00 | 0.00 | 61 | 1009.6 |
| 20260505064520 | 55 | 207 | 4.3 | 10.4 | 0.00 | 0.00 | 0.00 | 61 | 1009.6 |
| 20260505064006 | 55 | 171 | 4.3 | 10.4 | 0.00 | 0.00 | 0.00 | 62 | 1009.7 |
| 20260505063506 | 54 | 159 | 5.2 | 13.0 | 0.00 | 0.00 | 0.00 | 62 | 1009.7 |
| 20260505063024 | 54 | 214 | 6.1 | 12.2 | 0.00 | 0.00 | 0.00 | 62 | 1009.7 |
| 20260505062509 | 54 | 193 | 5.2 | 8.7 | 0.00 | 0.00 | 0.00 | 63 | 1009.8 |
| 20260505062006 | 54 | 180 | 3.5 | 7.8 | 0.00 | 0.00 | 0.00 | 64 | 1009.8 |
| 20260505061528 | 54 | 180 | 4.3 | 7.8 | 0.00 | 0.00 | 0.00 | 63 | 1009.9 |
| 20260505061006 | 54 | 182 | 3.5 | 6.1 | 0.00 | 0.00 | 0.00 | 63 | 1009.9 |
| 20260505060511 | 54 | 172 | 2.6 | 6.1 | 0.00 | 0.00 | 0.00 | 62 | 1009.9 |
| 20260505060034 | 55 | 197 | 2.6 | 8.7 | 0.00 | 0.00 | 0.00 | 62 | 1010.0 |
| 20260505055511 | 55 | 157 | 4.3 | 8.7 | 0.00 | 0.00 | 0.00 | 61 | 1010.0 |
| 20260505055003 | 55 | 187 | 4.3 | 10.4 | 0.00 | 0.00 | 0.00 | 62 | 1010.1 |
| 20260505054514 | 55 | 155 | 5.2 | 10.4 | 0.00 | 0.00 | 0.00 | 62 | 1010.1 |
| 20260505054007 | 55 | 205 | 3.5 | 9.6 | 0.00 | 0.00 | 0.00 | 62 | 1010.2 |
| 20260505053507 | 54 | 207 | 6.1 | 12.2 | 0.00 | 0.00 | 0.00 | 63 | 1010.2 |
| 20260505053024 | 54 | 194 | 5.2 | 12.2 | 0.00 | 0.00 | 0.00 | 63 | 1010.1 |
| 20260505052506 | 54 | 192 | 3.5 | 9.6 | 0.00 | 0.00 | 0.00 | 63 | 1010.2 |
| 20260505052005 | 54 | 161 | 4.3 | 9.6 | 0.00 | 0.00 | 0.00 | 63 | 1010.2 |
| 20260505051524 | 54 | 179 | 3.5 | 6.1 | 0.00 | 0.00 | 0.00 | 63 | 1010.2 |
| 20260505051008 | 55 | 222 | 4.3 | 8.7 | 0.00 | 0.00 | 0.00 | 62 | 1010.3 |
| 20260505050509 | 54 | 208 | 5.2 | 12.2 | 0.00 | 0.00 | 0.00 | 63 | 1010.3 |
| 20260505041522 | 52 | 180 | 4.3 | 9.6 | 0.00 | 0.00 | 0.00 | 68 | 1010.5 |
| 20260505041006 | 52 | 186 | 4.3 | 9.6 | 0.00 | 0.00 | 0.00 | 69 | 1010.5 |
| 20260505040507 | 52 | 156 | 3.5 | 7.0 | 0.00 | 0.00 | 0.00 | 69 | 1010.5 |
| 20260505040025 | 51 | 188 | 3.5 | 10.4 | 0.00 | 0.00 | 0.00 | 70 | 1010.5 |
| 20260505035511 | 51 | 190 | 4.3 | 10.4 | 0.00 | 0.00 | 0.00 | 70 | 1010.5 |
| 20260505035012 | 51 | 205 | 3.5 | 7.8 | 0.00 | 0.00 | 0.00 | 70 | 1010.5 |
| 20260505034528 | 51 | 180 | 3.5 | 7.8 | 0.00 | 0.00 | 0.00 | 70 | 1010.4 |
| 20260505034007 | 51 | 202 | 2.6 | 7.0 | 0.00 | 0.00 | 0.00 | 70 | 1010.5 |
| 20260505033511 | 52 | 179 | 2.6 | 6.1 | 0.00 | 0.00 | 0.00 | 69 | 1010.5 |
| 20260505033035 | 52 | 181 | 1.7 | 5.2 | 0.00 | 0.00 | 0.00 | 69 | 1010.5 |
| 20260505032509 | 52 | 178 | 1.7 | 7.8 | 0.00 | 0.00 | 0.00 | 68 | 1010.5 |
| 20260505032005 | 52 | 163 | 2.6 | 7.0 | 0.00 | 0.00 | 0.00 | 68 | 1010.5 |
| 20260505031520 | 52 | 188 | 1.7 | 4.3 | 0.00 | 0.00 | 0.00 | 68 | 1010.6 |
| 20260505031010 | 53 | 173 | 3.5 | 5.2 | 0.00 | 0.00 | 0.00 | 67 | 1010.6 |
| 20260505030507 | 53 | 202 | 1.7 | 5.2 | 0.00 | 0.00 | 0.00 | 67 | 1010.6 |
| 20260505030026 | 53 | 178 | 3.5 | 7.8 | 0.00 | 0.00 | 0.00 | 66 | 1010.6 |
| 20260505025507 | 53 | 165 | 4.3 | 8.7 | 0.00 | 0.00 | 0.00 | 66 | 1010.6 |
| 20260505025008 | 53 | 176 | 4.3 | 8.7 | 0.00 | 0.00 | 0.00 | 65 | 1010.6 |
| 20260505024543 | 53 | 191 | 5.2 | 8.7 | 0.00 | 0.00 | 0.00 | 65 | 1010.5 |
| 20260505024010 | 53 | 213 | 4.3 | 7.8 | 0.00 | 0.00 | 0.00 | 65 | 1010.5 |
| 20260505023504 | 53 | 205 | 2.6 | 5.2 | 0.00 | 0.00 | 0.00 | 65 | 1010.5 |
| 20260505023012 | 54 | 210 | 2.6 | 6.1 | 0.00 | 0.00 | 0.00 | 64 | 1010.6 |
| 20260505022503 | 54 | 173 | 3.5 | 9.6 | 0.00 | 0.00 | 0.00 | 64 | 1010.6 |
| 20260505022011 | 54 | 209 | 5.2 | 9.6 | 0.00 | 0.00 | 0.00 | 64 | 1010.5 |
| 20260505021519 | 54 | 198 | 5.2 | 7.8 | 0.00 | 0.00 | 0.00 | 64 | 1010.6 |
| 20260505021004 | 54 | 191 | 4.3 | 7.8 | 0.00 | 0.00 | 0.00 | 63 | 1010.6 |
| 20260505020504 | 54 | 209 | 3.5 | 7.8 | 0.00 | 0.00 | 0.00 | 63 | 1010.6 |
| 20260505020022 | 54 | 187 | 4.3 | 7.8 | 0.00 | 0.00 | 0.00 | 63 | 1010.6 |
| 20260505015509 | 55 | 181 | 2.6 | 7.8 | 0.00 | 0.00 | 0.00 | 62 | 1010.6 |
| 20260505015008 | 55 | 186 | 3.5 | 7.8 | 0.00 | 0.00 | 0.00 | 62 | 1010.6 |
| 20260505014534 | 55 | 189 | 3.5 | 7.8 | 0.00 | 0.00 | 0.00 | 61 | 1010.4 |
| 20260505014007 | 55 | 184 | 3.5 | 7.8 | 0.00 | 0.00 | 0.00 | 61 | 1010.4 |
| 20260505013510 | 55 | 192 | 4.3 | 6.1 | 0.00 | 0.00 | 0.00 | 60 | 1010.4 |
| 20260505013027 | 55 | 211 | 3.5 | 6.1 | 0.00 | 0.00 | 0.00 | 60 | 1010.4 |
| 20260505012504 | 56 | 207 | 3.5 | 7.8 | 0.00 | 0.00 | 0.00 | 60 | 1010.3 |
| 20260505012004 | 56 | 236 | 4.3 | 7.8 | 0.00 | 0.00 | 0.00 | 59 | 1010.2 |
| 20260505011515 | 56 | 192 | 2.6 | 6.1 | 0.00 | 0.00 | 0.00 | 59 | 1010.2 |
| 20260505011005 | 56 | 207 | 1.7 | 6.1 | 0.00 | 0.00 | 0.00 | 59 | 1010.2 |
| 20260505010507 | 57 | 188 | 4.3 | 6.1 | 0.00 | 0.00 | 0.00 | 58 | 1010.1 |
| 20260505010022 | 57 | 227 | 3.5 | 7.0 | 0.00 | 0.00 | 0.00 | 57 | 1009.9 |
| 20260505005508 | 57 | 221 | 3.5 | 7.0 | 0.00 | 0.00 | 0.00 | 57 | 1009.8 |
| 20260505005009 | 57 | 175 | 3.5 | 7.8 | 0.00 | 0.00 | 0.00 | 57 | 1009.7 |
| 20260505004526 | 58 | 184 | 3.5 | 7.8 | 0.00 | 0.00 | 0.00 | 56 | 1009.6 |
| 20260505004009 | 58 | 195 | 5.2 | 10.4 | 0.00 | 0.00 | 0.00 | 55 | 1009.5 |
| 20260505003510 | 58 | 210 | 5.2 | 10.4 | 0.00 | 0.00 | 0.00 | 55 | 1009.4 |
| 20260505003027 | 58 | 182 | 5.2 | 10.4 | 0.00 | 0.00 | 0.00 | 55 | 1009.3 |
| 20260505002509 | 58 | 200 | 4.3 | 9.6 | 0.00 | 0.00 | 0.00 | 54 | 1009.2 |
| 20260505002007 | 59 | 186 | 4.3 | 12.2 | 0.00 | 0.00 | 0.00 | 54 | 1009.1 |
| 20260505001529 | 59 | 203 | 5.2 | 12.2 | 0.00 | 0.00 | 0.00 | 54 | 1009.0 |
| 20260505001004 | 59 | 167 | 3.5 | 11.3 | 0.00 | 0.00 | 0.00 | 54 | 1009.0 |
| 20260505000504 | 60 | 213 | 4.3 | 11.3 | 0.00 | 0.00 | 0.00 | 53 | 1008.9 |
| 20260505000016 | 60 | 169 | 5.2 | 12.2 | 0.00 | 0.00 | 0.00 | 52 | 1008.9 |
| 20260504235504 | 61 | 210 | 7.0 | 13.0 | 0.00 | 0.00 | 0.00 | 50 | 1008.8 |
| 20260504235005 | 61 | 239 | 6.1 | 13.0 | 0.00 | 0.00 | 0.00 | 49 | 1008.8 |
| 20260504234521 | 62 | 235 | 4.3 | 14.8 | 0.00 | 0.00 | 0.00 | 47 | 1008.8 |
| 20260504234013 | 62 | 176 | 6.1 | 13.9 | 0.00 | 0.00 | 0.00 | 43 | 1008.7 |
| 20260504233510 | 63 | 171 | 1.7 | 6.1 | 0.00 | 0.00 | 0.00 | 44 | 1008.6 |
| 20260504233028 | 63 | 217 | 2.6 | 6.1 | 0.00 | 0.00 | 0.00 | 41 | 1008.5 |
| 20260504232506 | 63 | 217 | 2.6 | 8.7 | 0.00 | 0.00 | 0.00 | 40 | 1008.5 |
| 20260504232010 | 63 | 205 | 4.3 | 8.7 | 0.00 | 0.00 | 0.00 | 39 | 1008.3 |
| 20260504231528 | 63 | 205 | 6.1 | 9.6 | 0.00 | 0.00 | 0.00 | 39 | 1008.2 |
| 20260504231007 | 64 | 195 | 5.2 | 9.6 | 0.00 | 0.00 | 0.00 | 39 | 1008.1 |
| 20260504230508 | 64 | 175 | 5.2 | 12.2 | 0.00 | 0.00 | 0.00 | 39 | 1008.0 |
| 20260504230016 | 64 | 205 | 7.0 | 13.0 | 0.00 | 0.00 | 0.00 | 37 | 1007.8 |
| 20260504225505 | 64 | 217 | 7.0 | 13.0 | 0.00 | 0.00 | 0.00 | 38 | 1007.8 |
| 20260504225006 | 64 | 263 | 5.2 | 9.6 | 0.00 | 0.00 | 0.00 | 39 | 1007.9 |
| 20260504224525 | 64 | 189 | 3.5 | 9.6 | 0.00 | 0.00 | 0.00 | 38 | 1007.8 |
| 20260504224009 | 65 | 204 | 5.2 | 9.6 | 0.00 | 0.00 | 0.00 | 37 | 1007.9 |
| 20260504223513 | 65 | 186 | 4.3 | 13.9 | 0.00 | 0.00 | 0.00 | 37 | 1007.8 |
| 20260504223024 | 65 | 186 | 7.0 | 13.9 | 0.00 | 0.00 | 0.00 | 37 | 1007.8 |
| 20260504222509 | 65 | 181 | 6.1 | 14.8 | 0.00 | 0.00 | 0.00 | 37 | 1007.8 |
| 20260504222010 | 65 | 240 | 6.1 | 14.8 | 0.00 | 0.00 | 0.00 | 36 | 1007.9 |
| 20260504221527 | 65 | 195 | 5.2 | 13.9 | 0.00 | 0.00 | 0.00 | 37 | 1007.8 |
| 20260504221008 | 65 | 177 | 7.0 | 13.9 | 0.00 | 0.00 | 0.00 | 36 | 1008.0 |
| 20260504220510 | 65 | 198 | 7.0 | 12.2 | 0.00 | 0.00 | 0.00 | 37 | 1007.9 |
| 20260504220027 | 65 | 194 | 6.1 | 12.2 | 0.00 | 0.00 | 0.00 | 36 | 1008.0 |
| 20260504215508 | 65 | 231 | 4.3 | 16.5 | 0.00 | 0.00 | 0.00 | 36 | 1008.0 |
| 20260504215009 | 65 | 208 | 7.8 | 16.5 | 0.00 | 0.00 | 0.00 | 36 | 1008.1 |
| 20260504214519 | 65 | 209 | 7.8 | 15.6 | 0.00 | 0.00 | 0.00 | 37 | 1008.1 |
| 20260504214008 | 65 | 200 | 6.1 | 15.6 | 0.00 | 0.00 | 0.00 | 36 | 1008.2 |
| 20260504213510 | 66 | 223 | 4.3 | 18.2 | 0.00 | 0.00 | 0.00 | 36 | 1008.2 |
| 20260504213024 | 66 | 224 | 7.8 | 17.4 | 0.00 | 0.00 | 0.00 | 35 | 1008.2 |
| 20260504212507 | 66 | 216 | 13.0 | 17.4 | 0.00 | 0.00 | 0.00 | 35 | 1008.2 |
| 20260504212015 | 66 | 209 | 6.1 | 13.9 | 0.00 | 0.00 | 0.00 | 36 | 1008.2 |
| 20260504211525 | 66 | 202 | 7.8 | 13.0 | 0.00 | 0.00 | 0.00 | 36 | 1008.2 |
| 20260504211008 | 66 | 222 | 8.7 | 17.4 | 0.00 | 0.00 | 0.00 | 35 | 1008.2 |
| 20260504210511 | 66 | 232 | 10.4 | 18.2 | 0.00 | 0.00 | 0.00 | 35 | 1008.4 |
| 20260504210016 | 67 | 203 | 7.0 | 18.2 | 0.00 | 0.00 | 0.00 | 35 | 1008.3 |
| 20260504205504 | 67 | 187 | 5.2 | 16.5 | 0.00 | 0.00 | 0.00 | 35 | 1008.2 |
| 20260504205003 | 67 | 225 | 7.8 | 16.5 | 0.00 | 0.00 | 0.00 | 35 | 1008.2 |
| 20260504204528 | 67 | 227 | 6.1 | 14.8 | 0.00 | 0.00 | 0.00 | 36 | 1008.3 |
| 20260504204008 | 67 | 193 | 3.5 | 14.8 | 0.00 | 0.00 | 0.00 | 36 | 1008.3 |
| 20260504203506 | 67 | 194 | 3.5 | 15.6 | 0.00 | 0.00 | 0.00 | 35 | 1008.3 |
| 20260504203026 | 67 | 195 | 7.0 | 15.6 | 0.00 | 0.00 | 0.00 | 34 | 1008.3 |
| 20260504202507 | 67 | 180 | 8.7 | 13.9 | 0.00 | 0.00 | 0.00 | 34 | 1008.5 |
| 20260504202006 | 67 | 205 | 3.5 | 20.0 | 0.00 | 0.00 | 0.00 | 34 | 1008.3 |
| 20260504201524 | 67 | 295 | 7.8 | 19.1 | 0.00 | 0.00 | 0.00 | 36 | 1008.4 |
| 20260504201012 | 67 | 234 | 7.0 | 19.1 | 0.00 | 0.00 | 0.00 | 36 | 1008.6 |
| 20260504200510 | 68 | 224 | 6.1 | 15.6 | 0.00 | 0.00 | 0.00 | 35 | 1008.7 |
| 20260504200028 | 67 | 237 | 3.5 | 16.5 | 0.00 | 0.00 | 0.00 | 37 | 1008.7 |
| 20260504195507 | 67 | 215 | 4.3 | 16.5 | 0.00 | 0.00 | 0.00 | 35 | 1008.6 |
| 20260504195004 | 67 | 110 | 5.2 | 17.4 | 0.00 | 0.00 | 0.00 | 36 | 1009.0 |
| 20260504194515 | 67 | 211 | 7.0 | 17.4 | 0.00 | 0.00 | 0.00 | 38 | 1008.9 |
| 20260504194004 | 67 | 306 | 6.1 | 12.2 | 0.00 | 0.00 | 0.00 | 37 | 1008.9 |
| 20260504193504 | 67 | 211 | 3.5 | 16.5 | 0.00 | 0.00 | 0.00 | 37 | 1008.9 |
| 20260504193020 | 67 | 230 | 10.4 | 15.6 | 0.00 | 0.00 | 0.00 | 34 | 1008.9 |
| 20260504192505 | 67 | 270 | 8.7 | 14.8 | 0.00 | 0.00 | 0.00 | 34 | 1008.8 |
| 20260504192007 | 67 | 216 | 3.5 | 18.2 | 0.00 | 0.00 | 0.00 | 36 | 1008.7 |
| 20260504191523 | 67 | 290 | 4.3 | 18.2 | 0.00 | 0.00 | 0.00 | 36 | 1008.9 |
| 20260504191008 | 67 | 192 | 4.3 | 15.6 | 0.00 | 0.00 | 0.00 | 37 | 1008.9 |
| 20260504190508 | 66 | 169 | 7.8 | 16.5 | 0.00 | 0.00 | 0.00 | 36 | 1008.9 |
| 20260504190025 | 66 | 148 | 7.0 | 16.5 | 0.00 | 0.00 | 0.00 | 37 | 1008.9 |
| 20260504185510 | 66 | 212 | 8.7 | 15.6 | 0.00 | 0.00 | 0.00 | 36 | 1009.0 |
| 20260504185008 | 66 | 194 | 5.2 | 13.9 | 0.00 | 0.00 | 0.00 | 37 | 1009.1 |
| 20260504184528 | 66 | 184 | 3.5 | 14.8 | 0.00 | 0.00 | 0.00 | 38 | 1009.0 |
| 20260504184004 | 66 | 160 | 6.1 | 15.6 | 0.00 | 0.00 | 0.00 | 37 | 1009.1 |
| 20260504183506 | 66 | 224 | 4.3 | 20.0 | 0.00 | 0.00 | 0.00 | 36 | 1009.2 |
| 20260504183017 | 66 | 234 | 7.0 | 17.4 | 0.00 | 0.00 | 0.00 | 37 | 1009.0 |
| 20260504182508 | 66 | 337 | 4.3 | 15.6 | 0.00 | 0.00 | 0.00 | 36 | 1009.0 |
| 20260504182008 | 66 | 218 | 5.2 | 17.4 | 0.00 | 0.00 | 0.00 | 40 | 1009.2 |
| 20260504181521 | 66 | 246 | 7.0 | 17.4 | 0.00 | 0.00 | 0.00 | 39 | 1009.1 |
| 20260504181003 | 66 | 227 | 6.1 | 16.5 | 0.00 | 0.00 | 0.00 | 38 | 1009.1 |
| 20260504180502 | 66 | 345 | 9.6 | 16.5 | 0.00 | 0.00 | 0.00 | 37 | 1009.3 |
| 20260504180008 | 66 | 198 | 6.1 | 11.3 | 0.00 | 0.00 | 0.00 | 36 | 1009.2 |
| 20260504175503 | 65 | 196 | 4.3 | 17.4 | 0.00 | 0.00 | 0.00 | 37 | 1009.3 |
| 20260504175004 | 65 | 325 | 6.1 | 17.4 | 0.00 | 0.00 | 0.00 | 37 | 1009.3 |
| 20260504174510 | 65 | 221 | 7.8 | 16.5 | 0.00 | 0.00 | 0.00 | 38 | 1009.3 |
| 20260504174005 | 65 | 187 | 7.0 | 15.6 | 0.00 | 0.00 | 0.00 | 39 | 1009.3 |
| 20260504173505 | 65 | 180 | 6.1 | 14.8 | 0.00 | 0.00 | 0.00 | 37 | 1009.4 |
| 20260504173013 | 65 | 227 | 5.2 | 19.1 | 0.00 | 0.00 | 0.00 | 38 | 1009.4 |
| 20260504172505 | 64 | 196 | 3.5 | 19.1 | 0.00 | 0.00 | 0.00 | 37 | 1009.5 |
| 20260504172008 | 64 | 244 | 6.1 | 13.0 | 0.00 | 0.00 | 0.00 | 39 | 1009.4 |
| 20260504171521 | 64 | 183 | 5.2 | 13.0 | 0.00 | 0.00 | 0.00 | 38 | 1009.6 |
| 20260504171003 | 63 | 31 | 7.8 | 13.9 | 0.00 | 0.00 | 0.00 | 40 | 1009.7 |
| 20260504170505 | 63 | 191 | 6.1 | 20.9 | 0.00 | 0.00 | 0.00 | 38 | 1009.7 |
| 20260504151005 | 59 | 294 | 7.0 | 21.7 | 0.00 | 0.00 | 0.00 | 40 | 1010.6 |
| 20260504150509 | 59 | 234 | 8.7 | 22.6 | 0.00 | 0.00 | 0.00 | 39 | 1010.5 |
| 20260504141006 | 57 | 244 | 4.3 | 17.4 | 0.00 | 0.00 | 0.00 | 42 | 1011.0 |
| 20260504140507 | 57 | 185 | 7.8 | 17.4 | 0.00 | 0.00 | 0.00 | 41 | 1011.0 |